4XCWH LLHA-LLHA

Flight info

Callsign 4XCWH
Flight time 0h 20m
Altitude 1500
Route BAZRA DEROR SHARO HADRA BORN ATLIT DAROM GALIM
Aircraft C172/L-VGDW/C

Departure

Time 2026-05-01 09:52
Airport Uri Michaeli Haifa International Airport (LLHA)

Arrival

Time 2026-05-01 10:12
Airport Uri Michaeli Haifa International Airport (LLHA)
Time Latitude Longitude Altitude Speed Heading
2026-05-01 09:36 32.18191 34.82793 89 ft 0 kts 115°
2026-05-01 09:39 32.18189 34.82846 90 ft 12 kts 103°
2026-05-01 09:39 32.18148 34.82978 91 ft 20 kts 111°
2026-05-01 09:39 32.18088 34.83138 94 ft 22 kts 107°
2026-05-01 09:40 32.18036 34.83316 98 ft 24 kts 110°
2026-05-01 09:40 32.17918 34.83714 111 ft 26 kts 109°
2026-05-01 09:40 32.17889 34.83859 117 ft 11 kts 31°
2026-05-01 09:41 32.17923 34.83826 118 ft 7 kts 290°
2026-05-01 09:41 32.18053 34.83387 115 ft 68 kts 290°
2026-05-01 09:41 32.18231 34.82807 288 ft 73 kts 291°
2026-05-01 09:42 32.18594 34.82517 464 ft 76 kts
2026-05-01 09:42 32.19119 34.82712 700 ft 81 kts 14°
2026-05-01 09:42 32.20156 34.83551 804 ft 115 kts 66°
2026-05-01 09:43 32.20608 34.85442 797 ft 116 kts 71°
2026-05-01 09:43 32.20809 34.86347 803 ft 113 kts 73°
2026-05-01 09:43 32.21018 34.87237 800 ft 111 kts 72°
2026-05-01 09:44 32.21967 34.88411 793 ft 103 kts
2026-05-01 09:44 32.22647 34.88581 807 ft 101 kts
2026-05-01 09:44 32.23352 34.88706 810 ft 104 kts
2026-05-01 09:45 32.24075 34.88751 803 ft 101 kts 348°
2026-05-01 09:45 32.25408 34.88866 865 ft 93 kts
2026-05-01 09:45 32.26091 34.89000 995 ft 105 kts
2026-05-01 09:46 32.26822 34.89185 1119 ft 108 kts
2026-05-01 09:46 32.27555 34.89355 1259 ft 110 kts
2026-05-01 09:46 32.28311 34.89504 1381 ft 110 kts
2026-05-01 09:46 32.29088 34.89680 1502 ft 123 kts
2026-05-01 09:47 32.29911 34.89874 1514 ft 119 kts
2026-05-01 09:47 32.30720 34.90071 1515 ft 119 kts
2026-05-01 09:47 32.31532 34.90264 1518 ft 118 kts
2026-05-01 09:47 32.32334 34.90458 1519 ft 117 kts
2026-05-01 09:48 32.33148 34.90679 1494 ft 117 kts
2026-05-01 09:48 32.33922 34.90881 1512 ft 112 kts
2026-05-01 09:48 32.34708 34.91063 1514 ft 119 kts
2026-05-01 09:48 32.35525 34.91254 1513 ft 120 kts
2026-05-01 09:49 32.36338 34.91407 1510 ft 117 kts
2026-05-01 09:49 32.37135 34.91523 1528 ft 120 kts
2026-05-01 09:49 32.37930 34.91464 1491 ft 111 kts 344°
2026-05-01 09:49 32.38674 34.91352 1524 ft 106 kts 346°
2026-05-01 09:50 32.39448 34.91228 1521 ft 118 kts 345°
2026-05-01 09:50 32.40285 34.91173 1520 ft 122 kts 353°
2026-05-01 09:50 32.41055 34.91174 1502 ft 118 kts 353°
2026-05-01 09:50 32.41875 34.91184 1510 ft 118 kts 355°
2026-05-01 09:51 32.42679 34.91180 1512 ft 113 kts 354°
2026-05-01 09:51 32.43450 34.91209 1514 ft 116 kts
2026-05-01 09:51 32.44233 34.91489 1508 ft 117 kts 11°
2026-05-01 09:51 32.45016 34.91764 1513 ft 115 kts
2026-05-01 09:52 32.45776 34.92033 1508 ft 114 kts 12°
2026-05-01 09:52 32.46525 34.92293 1512 ft 113 kts 11°
2026-05-01 09:52 32.47298 34.92569 1507 ft 118 kts 12°
2026-05-01 09:52 32.48078 34.92752 1509 ft 111 kts 356°
2026-05-01 09:53 32.48841 34.92809 1499 ft 105 kts 358°
2026-05-01 09:53 32.49530 34.92876 1493 ft 97 kts 358°
2026-05-01 09:53 32.50207 34.92945 1477 ft 98 kts 358°
2026-05-01 09:53 32.50864 34.93005 1506 ft 99 kts 358°
2026-05-01 09:54 32.51542 34.93068 1489 ft 99 kts 358°
2026-05-01 09:54 32.52223 34.93133 1508 ft 98 kts 359°
2026-05-01 09:54 32.52901 34.93190 1508 ft 99 kts 358°
2026-05-01 09:54 32.53607 34.93254 1507 ft 106 kts 359°
2026-05-01 09:55 32.54332 34.93320 1495 ft 100 kts 357°
2026-05-01 09:55 32.55016 34.93383 1534 ft 97 kts 357°
2026-05-01 09:55 32.55680 34.93255 1510 ft 96 kts 337°
2026-05-01 09:55 32.56354 34.93072 1499 ft 100 kts 344°
2026-05-01 09:56 32.56991 34.92900 1504 ft 94 kts 345°
2026-05-01 09:56 32.57649 34.92741 1503 ft 98 kts 344°
2026-05-01 09:56 32.58318 34.92572 1506 ft 99 kts 345°
2026-05-01 09:56 32.58908 34.92773 1507 ft 112 kts 33°
2026-05-01 09:57 32.59533 34.93360 1505 ft 116 kts 31°
2026-05-01 09:57 32.60174 34.93931 1500 ft 115 kts 30°
2026-05-01 09:57 32.60793 34.94497 1500 ft 108 kts 32°
2026-05-01 09:57 32.61354 34.95022 1512 ft 101 kts 33°
2026-05-01 09:58 32.61962 34.95530 1517 ft 107 kts 26°
2026-05-01 09:58 32.62697 34.95897 1500 ft 121 kts
2026-05-01 09:58 32.63521 34.96052 1508 ft 123 kts
2026-05-01 09:58 32.64368 34.96245 1505 ft 124 kts 357°
2026-05-01 09:59 32.65227 34.96221 1499 ft 124 kts 352°
2026-05-01 09:59 32.66100 34.96176 1494 ft 124 kts 353°
2026-05-01 09:59 32.66941 34.96147 1488 ft 118 kts
2026-05-01 09:59 32.67733 34.96284 1487 ft 112 kts
2026-05-01 10:00 32.68473 34.96416 1485 ft 105 kts
2026-05-01 10:00 32.69182 34.96586 1492 ft 104 kts
2026-05-01 10:00 32.69896 34.96791 1488 ft 104 kts
2026-05-01 10:00 32.70594 34.97001 1491 ft 103 kts
2026-05-01 10:01 32.71301 34.97142 1477 ft 101 kts 350°
2026-05-01 10:01 32.71816 34.96696 1499 ft 92 kts 311°
2026-05-01 10:01 32.72331 34.96288 1491 ft 88 kts 331°
2026-05-01 10:01 32.72894 34.95961 1501 ft 95 kts 328°
2026-05-01 10:02 32.73515 34.95590 1505 ft 104 kts 327°
2026-05-01 10:02 32.74186 34.95190 1510 ft 109 kts 328°
2026-05-01 10:02 32.74880 34.94768 1485 ft 109 kts 328°
2026-05-01 10:02 32.75522 34.94390 1485 ft 99 kts 328°
2026-05-01 10:03 32.76175 34.94224 1488 ft 98 kts 359°
2026-05-01 10:03 32.76846 34.94300 1485 ft 96 kts 358°
2026-05-01 10:03 32.77503 34.94374 1486 ft 92 kts 357°
2026-05-01 10:03 32.78123 34.94453 1482 ft 87 kts 358°
2026-05-01 10:04 32.78723 34.94545 1484 ft 87 kts 357°
2026-05-01 10:04 32.79326 34.94645 1493 ft 91 kts 358°
2026-05-01 10:04 32.80004 34.94733 1501 ft 105 kts 358°
2026-05-01 10:04 32.80759 34.94792 1501 ft 111 kts 358°
2026-05-01 10:05 32.81541 34.94851 1503 ft 114 kts 358°
2026-05-01 10:05 32.82337 34.94911 1499 ft 115 kts 356°
2026-05-01 10:05 32.83131 34.94990 1497 ft 115 kts 358°
2026-05-01 10:05 32.83927 34.95079 1497 ft 116 kts
2026-05-01 10:06 32.84568 34.95682 1434 ft 119 kts 49°
2026-05-01 10:06 32.84697 34.96601 1313 ft 112 kts 95°
2026-05-01 10:06 32.84647 34.97523 1212 ft 115 kts 92°
2026-05-01 10:06 32.84592 34.98501 1111 ft 121 kts 92°
2026-05-01 10:07 32.84522 34.99505 1020 ft 123 kts 91°
2026-05-01 10:07 32.84429 35.00515 1000 ft 121 kts 94°
2026-05-01 10:07 32.84188 35.01453 987 ft 118 kts 99°
2026-05-01 10:07 32.84134 35.02401 986 ft 113 kts 93°
2026-05-01 10:08 32.83896 35.04237 980 ft 115 kts 124°
2026-05-01 10:08 32.83377 35.04958 988 ft 116 kts 131°
2026-05-01 10:08 32.82837 35.05727 1002 ft 128 kts 131°
2026-05-01 10:09 32.82239 35.06469 993 ft 119 kts 146°
2026-05-01 10:09 32.81590 35.07075 989 ft 117 kts 151°
2026-05-01 10:09 32.80902 35.07543 993 ft 114 kts 155°
2026-05-01 10:09 32.80223 35.08000 993 ft 111 kts 156°
2026-05-01 10:10 32.79549 35.08431 895 ft 107 kts 168°
2026-05-01 10:10 32.78890 35.08406 858 ft 86 kts 225°
2026-05-01 10:10 32.77984 35.07329 883 ft 100 kts 244°
2026-05-01 10:11 32.77687 35.06605 1014 ft 97 kts 269°
2026-05-01 10:11 32.77752 35.06087 995 ft 95 kts 298°
2026-05-01 10:11 32.78194 35.05486 812 ft 95 kts 323°
2026-05-01 10:11 32.78792 35.05191 588 ft 92 kts 339°
2026-05-01 10:12 32.79372 35.04999 365 ft 80 kts 344°
2026-05-01 10:12 32.79856 35.04861 220 ft 64 kts 343°
2026-05-01 10:12 32.80530 35.04585 27 ft 45 kts 338°
2026-05-01 10:13 32.80807 35.04465 21 ft 41 kts 339°
2026-05-01 10:13 32.81090 35.04342 21 ft 43 kts 340°
2026-05-01 10:13 32.81161 35.04256 22 ft 12 kts 250°
2026-05-01 10:14 32.81219 35.04183 20 ft 0 kts 344°
2026-05-01 10:14 32.81228 35.04179 20 ft 3 kts 341°
2026-05-01 10:14 32.81243 35.04180 21 ft 2 kts
2026-05-01 10:14 32.81249 35.04179 21 ft 0 kts 339°